Regional Weather Roundup
Issued by NWS

Home | Current Version | Previous Version | Graphics & Text | Print | Product List | Glossary On
Versions: 1 2 3 4 5 6 7 8 9 10 11 12 13 14 15 16 17 18 19 20 21 22 23 24 25 26 27
000
ASUS45 KSLC 220510
RWRUT

UTAH REGIONAL WEATHER ROUNDUP
NATIONAL WEATHER SERVICE SALT LAKE CITY UT
1100 PM MDT MON APR 21 2014

UTZ001>011-023>025-220600-

NORTHERN UTAH

CITY           SKY/WX    TMP DP  RH WIND       PRES   REMARKS
HILL AFB       MOCLDY    65  27  24 SE5       29.92F
LOGAN          PTCLDY    56  40  55 SW3       29.93F
OGDEN          MOCLDY    60  35  39 NW6       29.90F
PROVO AIRPORT  MOCLDY    66  36  32 SE17      29.96S
SALT LAKE CITY CLOUDY    63  32  31 SE8       29.89F
VERNAL         MOCLDY    54  34  46 NW5       30.05F
WENDOVER       CLOUDY    63  21  20 W5        29.89S
HEBER CITY     MOCLDY    52  32  46 CALM      30.02F
WEST JORDAN    CLEAR     66  34  30 S12       29.93F

$$

UTZ012>022-026-027-220600-

SOUTHERN UTAH

CITY           SKY/WX    TMP DP  RH WIND       PRES   REMARKS
BRYCE CANYON   MOCLDY    43  30  60 W6        30.20S
CEDAR CITY     CLOUDY    61  29  29 SE5       30.05F
MILFORD        CLOUDY    63  29  27 S9        30.00S
MOAB/CYNLANDS  CLEAR     61  29  29 CALM      29.99F
PRICE          PTCLDY    55  31  39 NE3       30.07F
ST GEORGE      MOCLDY    75  30  19 S7        29.92S

$$

REGIONAL REPORTS     COLORADO/ARIZONA

CITY           SKY/WX    TMP DP  RH WIND       PRES   REMARKS
CRAIG, CO      CLOUDY    47  34  60 SE6       30.13F
GRAND JUNCTION PTCLDY    58  33  39 E10       30.06F
RIFLE          MOCLDY    53  30  41 SE3       30.12S
MONTROSE       MOCLDY    55  32  41 SE12      30.15F
CORTEZ         CLEAR     49  31  49 NE5       30.16R
PAGE, AZ       PTCLDY    73  31  21 S9        29.99F
GRAND CANYON   MOCLDY    48  32  53 CALM      30.19S
KINGMAN        PTCLDY    69  26  20 S12       30.00S
FLAGSTAFF      CLEAR     49  28  44 CALM      30.23S

$$

REGIONAL REPORTS    NEVADA/IDAHO/WYOMING

CITY           SKY/WX    TMP DP  RH WIND       PRES   REMARKS
LAS VEGAS, NV  MOCLDY    83  27  13 S12       29.81F
ELY            PTCLDY    57  20  23 S13       30.01S
ELKO           CLOUDY    49  25  39 SW3       29.95R
POCATELLO, ID  CLOUDY    62  25  24 W9        29.94S
BURLEY         CLOUDY    62  35  36 W7        29.91F
EVANSTON, WY     N/A     51  25  36 SE8       30.08F
ROCK SPRINGS   PTCLDY    52  22  30 SE10      30.10F

$$



USA.gov is the U.S. government's official web portal to all federal, state and local government web resources and services.